ETD5GZ EHAM-OMAA

Flight info

Callsign ETD5GZ
Flight time N/A
Altitude 37000
Route EDUPO Z739 MISGO DCT GMH DCT TESGA DCT OSBIT DCT KEMES DCT LAMSI DCT SASAL DCT BABIT DCT NISVA N131 RODIP UN131 BELGI UT38 VESAR L620 BALMA/N0487F390 UR655 LEBOR R655 FIRAS L768 OVANO DCT NEVOL Q255 LUDEP P559 ALPOT M691 SILBA H979 DASVA N318 OVONA/N0493F350 N318 KAPUM N685 GIDOB
Aircraft A35K/H-SDE2E3GHIJ1J3J4J5LM1ORWXY/LB1D1

Departure

Time 2026-05-04 20:04
Airport Amsterdam Airport Schiphol (EHAM)

Arrival

Time N/A
Airport Zayed International Airport (OMAA)
Time Latitude Longitude Altitude Speed Heading
2026-05-04 19:39 52.31157 4.76801 5 ft 0 kts 304°
2026-05-04 19:47 52.31156 4.76804 5 ft 2 kts 304°
2026-05-04 19:47 52.31147 4.76827 6 ft 2 kts 304°
2026-05-04 19:47 52.31138 4.76849 6 ft 2 kts 304°
2026-05-04 19:47 52.31128 4.76872 8 ft 2 kts 304°
2026-05-04 19:48 52.31119 4.76894 7 ft 2 kts 304°
2026-05-04 19:48 52.31110 4.76917 7 ft 2 kts 303°
2026-05-04 19:48 52.31101 4.76939 7 ft 2 kts 302°
2026-05-04 19:48 52.31092 4.76963 7 ft 2 kts 298°
2026-05-04 19:49 52.31085 4.76987 6 ft 2 kts 288°
2026-05-04 19:49 52.31083 4.77013 5 ft 2 kts 275°
2026-05-04 19:49 52.31082 4.77035 5 ft 1 kts 274°
2026-05-04 19:49 52.31082 4.77036 5 ft 0 kts 274°
2026-05-04 19:51 52.31082 4.77037 5 ft 0 kts 274°
2026-05-04 19:52 52.31082 4.77034 5 ft 0 kts 274°
2026-05-04 19:52 52.31082 4.77023 5 ft 2 kts 274°
2026-05-04 19:52 52.31084 4.76986 5 ft 4 kts 278°
2026-05-04 19:53 52.31102 4.76947 5 ft 5 kts 321°
2026-05-04 19:53 52.31135 4.76939 5 ft 5 kts
2026-05-04 19:53 52.31171 4.76965 5 ft 6 kts 30°
2026-05-04 19:53 52.31212 4.77008 5 ft 8 kts 32°
2026-05-04 19:54 52.31261 4.77059 5 ft 9 kts 33°
2026-05-04 19:54 52.31319 4.77122 5 ft 10 kts 34°
2026-05-04 19:54 52.31376 4.77179 5 ft 9 kts 23°
2026-05-04 19:54 52.31444 4.77193 5 ft 10 kts
2026-05-04 19:55 52.31519 4.77200 5 ft 11 kts
2026-05-04 19:55 52.31566 4.77133 5 ft 10 kts 282°
2026-05-04 19:55 52.31565 4.77015 5 ft 11 kts 267°
2026-05-04 19:55 52.31561 4.76878 5 ft 13 kts 266°
2026-05-04 19:56 52.31555 4.76722 5 ft 15 kts 266°
2026-05-04 19:56 52.31549 4.76548 5 ft 16 kts 266°
2026-05-04 19:56 52.31542 4.76360 5 ft 17 kts 267°
2026-05-04 19:56 52.31536 4.76157 5 ft 19 kts 266°
2026-05-04 19:57 52.31528 4.75940 5 ft 20 kts 266°
2026-05-04 19:57 52.31520 4.75709 5 ft 21 kts 266°
2026-05-04 19:57 52.31512 4.75464 5 ft 22 kts 267°
2026-05-04 19:57 52.31503 4.75211 5 ft 23 kts 267°
2026-05-04 19:58 52.31495 4.74951 5 ft 20 kts 266°
2026-05-04 19:58 52.31487 4.74742 5 ft 17 kts 266°
2026-05-04 19:58 52.31481 4.74544 5 ft 18 kts 267°
2026-05-04 19:58 52.31475 4.74355 5 ft 11 kts 266°
2026-05-04 19:59 52.31462 4.74224 5 ft 12 kts 247°
2026-05-04 19:59 52.31412 4.74148 5 ft 10 kts 202°
2026-05-04 19:59 52.31335 4.74134 5 ft 12 kts 183°
2026-05-04 19:59 52.31247 4.74125 5 ft 14 kts 183°
2026-05-04 20:00 52.31141 4.74115 5 ft 16 kts 183°
2026-05-04 20:00 52.31025 4.74105 5 ft 18 kts 183°
2026-05-04 20:00 52.30898 4.74093 5 ft 19 kts 183°
2026-05-04 20:00 52.30760 4.74081 5 ft 21 kts 183°
2026-05-04 20:01 52.30617 4.74069 5 ft 18 kts 183°
2026-05-04 20:01 52.30508 4.74059 5 ft 16 kts 183°
2026-05-04 20:01 52.30408 4.74050 5 ft 12 kts 185°
2026-05-04 20:01 52.30325 4.74009 5 ft 13 kts 202°
2026-05-04 20:02 52.30248 4.73947 5 ft 13 kts 213°
2026-05-04 20:02 52.30194 4.73860 4 ft 11 kts 244°
2026-05-04 20:02 52.30193 4.73778 4 ft 2 kts 292°
2026-05-04 20:02 52.30207 4.73758 4 ft 4 kts 326°
2026-05-04 20:03 52.30242 4.73743 3 ft 6 kts 355°
2026-05-04 20:03 52.30257 4.73744 2 ft 2 kts
2026-05-04 20:03 52.30270 4.73745 2 ft 0 kts
2026-05-04 20:03 52.30300 4.73748 2 ft 18 kts
2026-05-04 20:04 52.30647 4.73779 3 ft 81 kts
2026-05-04 20:04 52.31403 4.73848 4 ft 135 kts
2026-05-04 20:04 52.32472 4.73930 250 ft 160 kts
2026-05-04 20:04 52.33577 4.74057 853 ft 163 kts 10°
2026-05-04 20:05 52.34725 4.74670 1244 ft 184 kts 24°
2026-05-04 20:05 52.35975 4.75570 1455 ft 212 kts 24°
2026-05-04 20:05 52.37423 4.76637 1619 ft 244 kts 25°
2026-05-04 20:05 52.38968 4.77970 2208 ft 254 kts 33°
2026-05-04 20:06 52.40320 4.79854 3048 ft 256 kts 47°
2026-05-04 20:06 52.41377 4.82179 3792 ft 260 kts 58°
2026-05-04 20:06 52.42078 4.84939 4452 ft 265 kts 77°
2026-05-04 20:06 52.42051 4.87948 5161 ft 270 kts 105°
2026-05-04 20:07 52.41158 4.90641 5918 ft 271 kts 127°
2026-05-04 20:07 52.39889 4.92963 6683 ft 273 kts 137°
2026-05-04 20:07 52.38391 4.94888 7420 ft 276 kts 147°
2026-05-04 20:07 52.36689 4.96360 8155 ft 279 kts 159°
2026-05-04 20:08 52.34776 4.96678 8912 ft 278 kts 189°
2026-05-04 20:08 52.32866 4.96095 9734 ft 280 kts 192°
2026-05-04 20:08 52.30951 4.95465 10375 ft 289 kts 192°
2026-05-04 20:08 52.28893 4.94786 10730 ft 307 kts 192°
2026-05-04 20:09 52.26764 4.94082 11063 ft 325 kts 192°
2026-05-04 20:09 52.24449 4.93771 11383 ft 345 kts 175°
2026-05-04 20:09 52.22099 4.94843 11735 ft 362 kts 154°
2026-05-04 20:09 52.20050 4.97291 12335 ft 370 kts 135°
2026-05-04 20:10 52.18260 5.00356 12980 ft 376 kts 133°
2026-05-04 20:10 52.16488 5.03517 13644 ft 381 kts 132°
2026-05-04 20:10 52.15274 5.05683 14089 ft 384 kts 132°
2026-05-04 20:10 52.13465 5.08909 14707 ft 388 kts 132°
2026-05-04 20:11 52.11636 5.12171 15328 ft 391 kts 132°
2026-05-04 20:11 52.09803 5.15439 15955 ft 395 kts 132°
2026-05-04 20:11 52.07940 5.18757 16573 ft 399 kts 132°
2026-05-04 20:11 52.06056 5.22104 17191 ft 403 kts 132°
2026-05-04 20:12 52.04171 5.25447 17797 ft 407 kts 132°
2026-05-04 20:12 52.02267 5.28874 18400 ft 411 kts 129°
2026-05-04 20:12 52.00669 5.32659 18955 ft 414 kts 119°
2026-05-04 20:12 51.99341 5.36814 19599 ft 416 kts 116°
2026-05-04 20:13 51.98144 5.41093 20268 ft 417 kts 114°
2026-05-04 20:13 51.97013 5.45446 20942 ft 418 kts 113°
2026-05-04 20:13 51.95907 5.49816 21581 ft 421 kts 113°
2026-05-04 20:13 51.94794 5.54219 22181 ft 424 kts 113°
2026-05-04 20:14 51.93667 5.58634 22775 ft 427 kts 114°
2026-05-04 20:14 51.92512 5.63101 23388 ft 429 kts 114°
2026-05-04 20:14 51.91360 5.67513 23882 ft 433 kts 115°
2026-05-04 20:14 51.90174 5.72024 24330 ft 437 kts 115°
2026-05-04 20:15 51.88973 5.76568 24783 ft 441 kts 115°
2026-05-04 20:15 51.87759 5.81149 25219 ft 445 kts 115°
2026-05-04 20:15 51.86535 5.85758 25683 ft 449 kts 115°
2026-05-04 20:15 51.85291 5.90438 26152 ft 452 kts 116°
2026-05-04 20:16 51.84042 5.95128 26589 ft 456 kts 116°
2026-05-04 20:16 51.82780 5.99860 27032 ft 460 kts 116°
2026-05-04 20:16 51.81505 6.04628 27467 ft 463 kts 116°
2026-05-04 20:16 51.80222 6.09421 27904 ft 467 kts 117°
2026-05-04 20:17 51.78923 6.14258 28332 ft 471 kts 117°
2026-05-04 20:17 51.77542 6.19061 28738 ft 472 kts 122°
2026-05-04 20:17 51.75815 6.23533 29145 ft 469 kts 131°
2026-05-04 20:17 51.73778 6.27650 29592 ft 469 kts 134°
2026-05-04 20:18 51.71647 6.31660 30006 ft 471 kts 136°
2026-05-04 20:18 51.69502 6.35566 30354 ft 473 kts 137°
2026-05-04 20:18 51.67262 6.39568 30696 ft 475 kts 137°
2026-05-04 20:18 51.65075 6.43456 31018 ft 477 kts 137°
2026-05-04 20:19 51.62838 6.47449 31331 ft 479 kts 137°
2026-05-04 20:19 51.60616 6.51438 31764 ft 478 kts 137°
2026-05-04 20:19 51.58436 6.55361 32194 ft 477 kts 137°
2026-05-04 20:19 51.56219 6.59355 32613 ft 477 kts 137°
2026-05-04 20:20 51.54015 6.63324 33026 ft 476 kts 137°
2026-05-04 20:20 51.51803 6.67302 33420 ft 475 kts 137°
2026-05-04 20:20 51.49600 6.71260 33818 ft 475 kts 137°
2026-05-04 20:20 51.47401 6.75203 34161 ft 474 kts 137°
2026-05-04 20:21 51.45216 6.79114 34441 ft 474 kts 137°
2026-05-04 20:21 51.43099 6.83261 34697 ft 479 kts 130°
2026-05-04 20:21 51.39923 6.92787 35224 ft 489 kts 117°
2026-05-04 20:22 51.38681 6.97784 35491 ft 491 kts 115°
2026-05-04 20:22 51.37501 7.02914 35756 ft 491 kts 114°
2026-05-04 20:22 51.36345 7.08072 36013 ft 491 kts 114°
2026-05-04 20:22 51.35189 7.13210 36259 ft 491 kts 114°
2026-05-04 20:23 51.34016 7.18344 36497 ft 491 kts 114°
2026-05-04 20:23 51.32829 7.23453 36738 ft 491 kts 114°
2026-05-04 20:23 51.31621 7.28593 36958 ft 492 kts 115°
2026-05-04 20:23 51.30407 7.33716 36976 ft 496 kts 115°
2026-05-04 20:24 51.27937 7.44069 36981 ft 498 kts 115°
2026-05-04 20:24 51.25478 7.54348 36979 ft 497 kts 115°
2026-05-04 20:25 51.23003 7.64649 36983 ft 497 kts 115°
2026-05-04 20:25 51.20519 7.74938 36987 ft 497 kts 115°
2026-05-04 20:26 51.18018 7.85229 36990 ft 496 kts 115°
2026-05-04 20:26 51.14822 7.94866 36994 ft 490 kts 125°
2026-05-04 20:27 51.11205 8.04081 36996 ft 490 kts 127°
2026-05-04 20:27 51.07528 8.13210 36994 ft 489 kts 127°
2026-05-04 20:28 51.03877 8.22268 36995 ft 489 kts 127°
2026-05-04 20:28 51.00207 8.31382 36991 ft 489 kts 127°
2026-05-04 20:29 50.96537 8.40485 36990 ft 489 kts 127°
2026-05-04 20:29 50.92862 8.49569 36995 ft 489 kts 127°
2026-05-04 20:30 50.89208 8.58570 37001 ft 488 kts 127°
2026-05-04 20:30 50.85520 8.67619 36981 ft 488 kts 127°
2026-05-04 20:31 50.81826 8.76653 36994 ft 488 kts 127°
2026-05-04 20:31 50.78125 8.85670 36991 ft 488 kts 127°
2026-05-04 20:32 50.74441 8.94617 36985 ft 488 kts 127°
2026-05-04 20:32 50.70719 9.03624 36986 ft 488 kts 127°
2026-05-04 20:33 50.67019 9.12546 36988 ft 488 kts 127°
2026-05-04 20:33 50.63281 9.21533 36988 ft 488 kts 127°
2026-05-04 20:34 50.59562 9.30441 36988 ft 488 kts 127°
2026-05-04 20:34 50.55823 9.39366 36992 ft 488 kts 127°
2026-05-04 20:35 50.52094 9.48239 36992 ft 488 kts 128°
2026-05-04 20:35 50.48328 9.57167 36988 ft 488 kts 127°
2026-05-04 20:36 50.44571 9.66045 36985 ft 489 kts 128°
2026-05-04 20:36 50.40796 9.74936 36985 ft 488 kts 128°
2026-05-04 20:37 50.37026 9.83784 36978 ft 488 kts 128°
2026-05-04 20:37 50.33276 9.92555 36976 ft 488 kts 128°
2026-05-04 20:38 50.29478 10.01409 36974 ft 488 kts 128°
2026-05-04 20:38 50.25687 10.10218 36971 ft 488 kts 128°
2026-05-04 20:39 50.21913 10.18960 36967 ft 488 kts 128°
2026-05-04 20:39 50.18111 10.27735 36960 ft 488 kts 128°
2026-05-04 20:40 50.14303 10.36495 36957 ft 488 kts 128°
2026-05-04 20:40 50.10488 10.45241 36957 ft 488 kts 128°
2026-05-04 20:41 50.06657 10.53995 36952 ft 489 kts 128°
2026-05-04 20:41 50.02818 10.62739 36946 ft 489 kts 128°
2026-05-04 20:42 49.99000 10.71409 36948 ft 489 kts 128°
2026-05-04 20:42 49.95142 10.80137 36945 ft 489 kts 128°
2026-05-04 20:43 49.91284 10.88837 36938 ft 490 kts 128°
2026-05-04 20:43 49.87414 10.97538 36937 ft 490 kts 128°
2026-05-04 20:44 49.83533 11.06232 36937 ft 490 kts 128°
2026-05-04 20:44 49.79650 11.14905 36935 ft 490 kts 128°
2026-05-04 20:45 49.75750 11.23585 36936 ft 490 kts 128°
2026-05-04 20:45 49.71876 11.32181 36928 ft 490 kts 128°
2026-05-04 20:46 49.67961 11.40838 36931 ft 489 kts 128°
2026-05-04 20:46 49.64074 11.49407 36947 ft 489 kts 128°
2026-05-04 20:47 49.60149 11.58032 36963 ft 489 kts 128°
2026-05-04 20:47 49.56249 11.66572 36964 ft 489 kts 128°
2026-05-04 20:48 49.52337 11.75111 36964 ft 489 kts 128°
2026-05-04 20:48 49.48406 11.83667 36956 ft 489 kts 128°
2026-05-04 20:49 49.44466 11.92214 36941 ft 489 kts 128°
2026-05-04 20:49 49.40522 12.00743 36937 ft 489 kts 128°
2026-05-04 20:50 49.36598 12.09201 36937 ft 489 kts 128°
2026-05-04 20:50 49.32642 12.17699 36934 ft 489 kts 128°
2026-05-04 20:51 49.28669 12.26208 36929 ft 489 kts 128°
2026-05-04 20:51 49.24708 12.34664 36924 ft 490 kts 128°
2026-05-04 20:52 49.20753 12.43082 36924 ft 490 kts 128°
2026-05-04 20:52 49.16768 12.51536 36922 ft 490 kts 128°
2026-05-04 20:53 49.12762 12.60009 36919 ft 490 kts 129°
2026-05-04 20:53 49.08779 12.68406 36916 ft 490 kts 129°
2026-05-04 20:54 49.04772 12.76826 36913 ft 489 kts 129°
2026-05-04 20:54 49.00766 12.85218 36918 ft 490 kts 129°
2026-05-04 20:55 48.96754 12.93595 36915 ft 490 kts 129°
2026-05-04 20:55 48.93416 13.00547 36920 ft 490 kts 129°
2026-05-04 20:56 48.88715 13.10309 36920 ft 490 kts 129°
2026-05-04 20:56 48.85367 13.17239 36922 ft 490 kts 129°
2026-05-04 20:57 48.81324 13.25583 36914 ft 490 kts 129°
2026-05-04 20:57 48.77279 13.33904 36918 ft 490 kts 129°
2026-05-04 20:58 48.73246 13.42175 36914 ft 490 kts 129°
2026-05-04 20:58 48.69161 13.50528 36913 ft 490 kts 129°
2026-05-04 20:59 48.65119 13.58768 36912 ft 490 kts 129°
2026-05-04 20:59 48.61197 13.67205 36905 ft 492 kts 126°
2026-05-04 21:00 48.57398 13.75813 36902 ft 492 kts 126°
2026-05-04 21:00 48.53579 13.84388 36896 ft 492 kts 127°
2026-05-04 21:01 48.49718 13.92927 36905 ft 492 kts 127°
2026-05-04 21:01 48.45838 14.01447 36912 ft 493 kts 127°
2026-05-04 21:02 48.41952 14.09951 36916 ft 493 kts 127°
2026-05-04 21:02 48.38058 14.18452 36927 ft 493 kts 127°
2026-05-04 21:03 48.34158 14.26943 36936 ft 493 kts 127°
2026-05-04 21:03 48.30247 14.35426 36929 ft 493 kts 127°
2026-05-04 21:04 48.26359 14.43837 36922 ft 493 kts 127°
2026-05-04 21:04 48.22441 14.52285 36913 ft 493 kts 127°
2026-05-04 21:05 48.18518 14.60717 36902 ft 493 kts 127°
2026-05-04 21:05 48.14590 14.69135 36895 ft 493 kts 127°
2026-05-04 21:06 48.10660 14.77531 36896 ft 493 kts 127°
2026-05-04 21:06 48.06719 14.85924 36900 ft 493 kts 127°
2026-05-04 21:07 48.02774 14.94301 36902 ft 493 kts 127°
2026-05-04 21:07 47.98823 15.02661 36913 ft 493 kts 127°
2026-05-04 21:08 47.94870 15.11003 36917 ft 493 kts 127°
2026-05-04 21:08 47.90905 15.19348 36919 ft 493 kts 127°
2026-05-04 21:09 47.87021 15.27494 36949 ft 493 kts 127°
2026-05-04 21:09 47.83041 15.35818 36936 ft 493 kts 127°
2026-05-04 21:10 47.79061 15.44119 36962 ft 494 kts 127°
2026-05-04 21:10 47.75074 15.52405 36961 ft 494 kts 127°
2026-05-04 21:11 47.71058 15.60725 36968 ft 494 kts 127°
2026-05-04 21:11 47.67064 15.68974 36974 ft 494 kts 127°
2026-05-04 21:12 47.63061 15.77218 36970 ft 493 kts 127°
2026-05-04 21:12 47.59057 15.85442 36974 ft 493 kts 127°
2026-05-04 21:13 47.54996 15.93757 36976 ft 493 kts 127°
2026-05-04 21:13 47.50970 16.01974 36971 ft 493 kts 127°
2026-05-04 21:14 47.46958 16.10138 36974 ft 494 kts 127°
2026-05-04 21:14 47.42914 16.18344 36967 ft 494 kts 127°
2026-05-04 21:15 47.38861 16.26542 36964 ft 493 kts 127°
2026-05-04 21:15 47.34804 16.34725 36967 ft 493 kts 127°
2026-05-04 21:16 47.30749 16.42881 36972 ft 493 kts 127°
2026-05-04 21:16 47.26670 16.51026 36977 ft 493 kts 128°
2026-05-04 21:17 47.22473 16.58958 36977 ft 493 kts 129°
2026-05-04 21:17 47.18213 16.66880 36979 ft 494 kts 129°
2026-05-04 21:18 47.13969 16.74818 36980 ft 494 kts 129°
2026-05-04 21:18 47.09741 16.82745 36984 ft 494 kts 129°
2026-05-04 21:19 47.05508 16.90668 36990 ft 494 kts 129°
2026-05-04 21:19 47.01279 16.98556 36993 ft 494 kts 129°
2026-05-04 21:20 46.97028 17.06461 37004 ft 494 kts 129°
2026-05-04 21:20 46.92771 17.14355 37010 ft 495 kts 129°
2026-05-04 21:21 46.88496 17.22257 37019 ft 495 kts 129°
2026-05-04 21:21 46.84224 17.30132 37014 ft 495 kts 129°
2026-05-04 21:22 46.79957 17.37977 37020 ft 495 kts 129°
2026-05-04 21:22 46.75660 17.45853 37019 ft 496 kts 129°
2026-05-04 21:23 46.71365 17.53704 37017 ft 496 kts 129°
2026-05-04 21:23 46.67065 17.61541 37018 ft 496 kts 129°
2026-05-04 21:24 46.62714 17.69450 37022 ft 496 kts 129°
2026-05-04 21:24 46.58370 17.77323 37027 ft 497 kts 129°
2026-05-04 21:25 46.54036 17.85154 37025 ft 497 kts 129°
2026-05-04 21:25 46.49713 17.92945 37028 ft 497 kts 129°
2026-05-04 21:26 46.45373 18.00744 37035 ft 497 kts 129°
2026-05-04 21:26 46.41028 18.08530 37029 ft 498 kts 129°
2026-05-04 21:27 46.36677 18.16306 37037 ft 498 kts 129°
2026-05-04 21:27 46.32300 18.24105 37044 ft 498 kts 129°
2026-05-04 21:28 46.27938 18.31855 37051 ft 498 kts 129°
2026-05-04 21:28 46.23560 18.39615 37056 ft 498 kts 129°
2026-05-04 21:29 46.19185 18.47345 37055 ft 498 kts 129°
2026-05-04 21:29 46.14807 18.55060 37060 ft 498 kts 129°
2026-05-04 21:30 46.10404 18.62796 37058 ft 498 kts 129°
2026-05-04 21:30 46.06014 18.70489 37057 ft 498 kts 129°
2026-05-04 21:31 45.99433 18.81983 37060 ft 498 kts 129°
2026-05-04 21:32 45.95026 18.89652 37058 ft 498 kts 129°
2026-05-04 21:32 45.90321 18.96917 37060 ft 498 kts 135°
2026-05-04 21:33 45.85323 19.03944 37059 ft 499 kts 135°
2026-05-04 21:33 45.80345 19.10883 37063 ft 499 kts 135°
2026-05-04 21:34 45.75355 19.17836 37064 ft 499 kts 135°
2026-05-04 21:34 45.70378 19.24766 37062 ft 499 kts 135°
2026-05-04 21:35 45.65456 19.31603 37061 ft 499 kts 135°
2026-05-04 21:35 45.60482 19.38494 37068 ft 500 kts 135°
2026-05-04 21:36 45.55434 19.45470 37064 ft 500 kts 135°
2026-05-04 21:36 45.50449 19.52340 37067 ft 500 kts 135°
2026-05-04 21:37 45.45490 19.59156 37065 ft 501 kts 135°
2026-05-04 21:37 45.40395 19.66141 37067 ft 501 kts 135°
2026-05-04 21:38 45.35418 19.72947 37067 ft 501 kts 135°
2026-05-04 21:38 45.30542 19.79597 37068 ft 501 kts 135°
2026-05-04 21:39 45.25514 19.86438 37067 ft 502 kts 135°
2026-05-04 21:39 45.20470 19.93283 37066 ft 502 kts 136°
2026-05-04 21:40 45.15407 20.00135 37065 ft 502 kts 136°
2026-05-04 21:40 45.10347 20.06965 37070 ft 502 kts 136°
2026-05-04 21:41 45.06136 20.12637 37073 ft 502 kts 136°
2026-05-04 21:41 45.01058 20.19459 37069 ft 502 kts 136°
2026-05-04 21:42 44.96003 20.26233 37077 ft 503 kts 136°
2026-05-04 21:42 44.90921 20.33026 37076 ft 503 kts 136°
2026-05-04 21:43 44.85829 20.39815 37076 ft 503 kts 136°
2026-05-04 21:43 44.80714 20.46617 37076 ft 504 kts 136°
2026-05-04 21:44 44.75629 20.53362 37077 ft 504 kts 136°
2026-05-04 21:44 44.70546 20.60088 37077 ft 504 kts 136°
2026-05-04 21:45 44.65411 20.66865 37087 ft 505 kts 136°
2026-05-04 21:45 44.60315 20.73574 37088 ft 505 kts 136°
2026-05-04 21:46 44.55186 20.80308 37086 ft 505 kts 136°
2026-05-04 21:46 44.50052 20.87033 37089 ft 505 kts 136°
2026-05-04 21:47 44.44914 20.93746 37077 ft 505 kts 136°
2026-05-04 21:47 44.39775 21.00444 37075 ft 505 kts 136°
2026-05-04 21:48 44.34628 21.07134 37102 ft 505 kts 136°
2026-05-04 21:48 44.29483 21.13805 37090 ft 505 kts 136°
2026-05-04 21:49 44.24354 21.20438 37093 ft 505 kts 136°
2026-05-04 21:49 44.19189 21.27103 37093 ft 505 kts 136°
2026-05-04 21:50 44.14018 21.33758 37096 ft 506 kts 136°
2026-05-04 21:50 44.08891 21.40340 37097 ft 506 kts 136°
2026-05-04 21:51 44.03658 21.47043 37100 ft 507 kts 136°
2026-05-04 21:51 43.98539 21.53581 37102 ft 508 kts 136°
2026-05-04 21:52 43.93332 21.60215 37101 ft 508 kts 136°
2026-05-04 21:52 43.88120 21.66840 37104 ft 508 kts 136°
2026-05-04 21:53 43.82897 21.73463 37103 ft 509 kts 136°
2026-05-04 21:53 43.77672 21.80071 37105 ft 509 kts 136°
2026-05-04 21:54 43.72435 21.86678 37105 ft 509 kts 136°
2026-05-04 21:54 43.67201 21.93265 37105 ft 508 kts 136°
2026-05-04 21:55 43.61998 21.99797 37114 ft 508 kts 136°
2026-05-04 21:55 43.56751 22.06369 37111 ft 508 kts 136°
2026-05-04 21:56 43.51730 22.12642 37117 ft 508 kts 136°
2026-05-04 21:56 43.46471 22.19196 37115 ft 508 kts 136°
2026-05-04 21:57 43.41223 22.25722 37117 ft 508 kts 136°
2026-05-04 21:57 43.36021 22.32173 37116 ft 508 kts 136°
2026-05-04 21:58 43.30774 22.38666 37118 ft 508 kts 136°
2026-05-04 21:58 43.25532 22.45136 37121 ft 508 kts 137°
2026-05-04 21:59 43.20271 22.51614 37130 ft 508 kts 137°
2026-05-04 21:59 43.15029 22.58053 37132 ft 507 kts 137°
2026-05-04 22:00 43.09746 22.64526 37135 ft 507 kts 137°
2026-05-04 22:00 43.04503 22.70937 37138 ft 507 kts 137°
2026-05-04 22:01 42.99241 22.77355 37144 ft 507 kts 137°
2026-05-04 22:01 42.93984 22.83812 37142 ft 507 kts 136°
2026-05-04 22:02 42.88818 22.90388 37144 ft 507 kts 135°
2026-05-04 22:02 42.83685 22.96932 37146 ft 507 kts 136°
2026-05-04 22:03 42.78515 23.03475 37141 ft 507 kts 136°
2026-05-04 22:03 42.73362 23.09958 37137 ft 506 kts 136°
2026-05-04 22:04 42.68155 23.16490 37133 ft 506 kts 136°
2026-05-04 22:04 42.63007 23.22932 37132 ft 506 kts 136°
2026-05-04 22:05 42.57804 23.29430 37131 ft 505 kts 136°
2026-05-04 22:05 42.52659 23.35840 37133 ft 505 kts 136°
2026-05-04 22:06 42.47453 23.42311 37133 ft 505 kts 136°
2026-05-04 22:06 42.42299 23.48703 37134 ft 505 kts 136°
2026-05-04 22:07 42.37093 23.55144 37135 ft 505 kts 136°
2026-05-04 22:07 42.31934 23.61512 37142 ft 505 kts 136°
2026-05-04 22:08 42.26752 23.67893 37126 ft 505 kts 136°
2026-05-04 22:08 42.21534 23.74304 37146 ft 505 kts 136°
2026-05-04 22:09 42.16342 23.80668 37134 ft 505 kts 136°
2026-05-04 22:09 42.11153 23.87013 37126 ft 505 kts 136°
2026-05-04 22:10 42.05957 23.93350 37129 ft 505 kts 137°
2026-05-04 22:10 42.00770 23.99664 37123 ft 505 kts 137°
2026-05-04 22:11 41.95560 24.05992 37125 ft 505 kts 137°
2026-05-04 22:11 41.90319 24.12340 37123 ft 505 kts 137°
2026-05-04 22:12 41.85108 24.18640 37126 ft 505 kts 137°
2026-05-04 22:12 41.79876 24.24949 37126 ft 505 kts 137°
2026-05-04 22:13 41.74676 24.31207 37129 ft 505 kts 137°
2026-05-04 22:13 41.69446 24.37484 37132 ft 505 kts 137°
2026-05-04 22:14 41.64174 24.43799 37130 ft 505 kts 137°
2026-05-04 22:14 41.58967 24.50023 37132 ft 506 kts 137°
2026-05-04 22:15 41.53717 24.56283 37128 ft 506 kts 137°
2026-05-04 22:15 41.48480 24.62513 37127 ft 506 kts 137°
2026-05-04 22:16 41.43223 24.68754 37124 ft 506 kts 137°
2026-05-04 22:16 41.37966 24.74994 37118 ft 506 kts 137°
2026-05-04 22:17 41.32712 24.81211 37109 ft 506 kts 137°
2026-05-04 22:17 41.27424 24.87450 37106 ft 506 kts 137°
2026-05-04 22:18 41.22149 24.93666 37100 ft 506 kts 137°
2026-05-04 22:18 41.16883 24.99859 37094 ft 506 kts 137°
2026-05-04 22:19 41.11654 25.05995 37086 ft 506 kts 137°
2026-05-04 22:19 41.06368 25.12182 37080 ft 506 kts 137°
2026-05-04 22:20 41.01057 25.18385 37077 ft 506 kts 137°
2026-05-04 22:20 40.95798 25.24513 37080 ft 505 kts 137°
2026-05-04 22:21 40.90511 25.30661 37080 ft 505 kts 137°
2026-05-04 22:21 40.85253 25.36766 37061 ft 505 kts 137°
2026-05-04 22:22 40.79996 25.42905 37075 ft 504 kts 135°
2026-05-04 22:22 40.75246 25.49741 37075 ft 503 kts 129°
2026-05-04 22:23 40.70703 25.56693 37078 ft 503 kts 129°
2026-05-04 22:23 40.66133 25.63736 37076 ft 503 kts 129°
2026-05-04 22:24 40.61591 25.70696 37076 ft 503 kts 129°
2026-05-04 22:24 40.57018 25.77668 37079 ft 503 kts 129°
2026-05-04 22:25 40.52429 25.84642 37078 ft 503 kts 129°
2026-05-04 22:25 40.48262 25.91945 37081 ft 501 kts 122°
2026-05-04 22:26 40.44475 25.99650 37082 ft 501 kts 120°
2026-05-04 22:26 40.40742 26.07393 37084 ft 501 kts 120°
2026-05-04 22:27 40.37035 26.15055 37088 ft 501 kts 121°
2026-05-04 22:27 40.33282 26.22763 37093 ft 501 kts 121°
2026-05-04 22:28 40.29521 26.30454 37098 ft 501 kts 121°
2026-05-04 22:28 40.25748 26.38152 37104 ft 501 kts 121°
2026-05-04 22:29 40.21985 26.45810 37099 ft 501 kts 121°
2026-05-04 22:29 40.18849 26.52179 37112 ft 501 kts 121°
2026-05-04 22:30 40.15064 26.59849 37093 ft 500 kts 121°
2026-05-04 22:30 40.11289 26.67480 37098 ft 500 kts 121°
2026-05-04 22:31 40.07520 26.75080 37100 ft 500 kts 121°
2026-05-04 22:31 40.03744 26.82677 37100 ft 500 kts 121°
2026-05-04 22:32 39.99931 26.90329 37101 ft 500 kts 121°
2026-05-04 22:32 39.96155 26.97889 37099 ft 500 kts 121°
2026-05-04 22:33 39.92338 27.05510 37097 ft 500 kts 121°
2026-05-04 22:33 39.88542 27.13074 37097 ft 501 kts 121°
2026-05-04 22:34 39.84707 27.20695 37095 ft 501 kts 121°
2026-05-04 22:34 39.80891 27.28262 37098 ft 501 kts 121°
2026-05-04 22:35 39.77048 27.35859 37093 ft 501 kts 121°
2026-05-04 22:35 39.73232 27.43368 37090 ft 501 kts 122°
2026-05-04 22:36 39.69385 27.50931 37089 ft 501 kts 121°
2026-05-04 22:36 39.65558 27.58451 37094 ft 501 kts 122°
2026-05-04 22:37 39.61682 27.66044 37096 ft 502 kts 122°
2026-05-04 22:37 39.57836 27.73562 37100 ft 502 kts 122°
2026-05-04 22:38 39.53972 27.81097 37102 ft 502 kts 122°
2026-05-04 22:38 39.50096 27.88651 37100 ft 502 kts 122°
2026-05-04 22:39 39.46218 27.96177 37098 ft 502 kts 122°
2026-05-04 22:39 39.42357 28.03643 37092 ft 502 kts 122°
2026-05-04 22:40 39.38444 28.11196 37087 ft 502 kts 122°
2026-05-04 22:40 39.34565 28.18670 37082 ft 503 kts 122°
2026-05-04 22:41 39.30650 28.26196 37079 ft 504 kts 122°
2026-05-04 22:41 39.26732 28.33723 37077 ft 505 kts 122°
2026-05-04 22:42 39.22807 28.41235 37075 ft 506 kts 122°
2026-05-04 22:42 39.18873 28.48740 37076 ft 507 kts 122°
2026-05-04 22:43 39.14924 28.56264 37072 ft 507 kts 122°
2026-05-04 22:43 39.10989 28.63745 37068 ft 506 kts 122°
2026-05-04 22:44 39.07008 28.71293 37064 ft 506 kts 122°
2026-05-04 22:44 39.03062 28.78763 37048 ft 506 kts 123°
2026-05-04 22:45 38.99094 28.86252 37054 ft 506 kts 123°
2026-05-04 22:45 38.93145 28.97445 37069 ft 506 kts 123°
2026-05-04 22:46 38.89160 29.04925 37065 ft 506 kts 123°
2026-05-04 22:46 38.85216 29.12310 37064 ft 506 kts 123°
2026-05-04 22:47 38.81227 29.19759 37060 ft 506 kts 123°
2026-05-04 22:47 38.77207 29.27250 37058 ft 506 kts 124°
2026-05-04 22:48 38.73231 29.34644 37067 ft 507 kts 124°
2026-05-04 22:48 38.69219 29.42088 37057 ft 508 kts 124°
2026-05-04 22:49 38.65198 29.49519 37062 ft 507 kts 124°
2026-05-04 22:49 38.61076 29.56819 37059 ft 507 kts 126°
2026-05-04 22:50 38.56910 29.64068 37060 ft 507 kts 126°
2026-05-04 22:50 38.52733 29.71362 37060 ft 507 kts 126°
2026-05-04 22:51 38.48578 29.78635 37059 ft 507 kts 126°
2026-05-04 22:51 38.44430 29.85892 37051 ft 508 kts 126°
2026-05-04 22:52 38.40253 29.93182 37049 ft 508 kts 126°
2026-05-04 22:52 38.36093 30.00424 37044 ft 508 kts 126°
2026-05-04 22:53 38.31896 30.07714 37044 ft 509 kts 127°
2026-05-04 22:53 38.27710 30.14976 37040 ft 509 kts 127°
2026-05-04 22:54 38.23536 30.22215 37032 ft 509 kts 127°
2026-05-04 22:54 38.19351 30.29443 37030 ft 509 kts 127°
2026-05-04 22:55 38.15147 30.36681 37034 ft 509 kts 127°
2026-05-04 22:55 38.10944 30.43907 37021 ft 509 kts 127°
2026-05-04 22:56 38.06713 30.51166 37022 ft 509 kts 127°
2026-05-04 22:56 38.02517 30.58350 37015 ft 509 kts 128°
2026-05-04 22:57 37.98293 30.65566 37014 ft 510 kts 128°
2026-05-04 22:57 37.94056 30.72814 37000 ft 510 kts 128°
2026-05-04 22:58 37.89838 30.80012 36995 ft 510 kts 128°
2026-05-04 22:58 37.85589 30.87247 36985 ft 510 kts 128°
2026-05-04 22:59 37.81348 30.94451 36971 ft 510 kts 128°
2026-05-04 22:59 37.77107 31.01643 36984 ft 510 kts 128°
2026-05-04 23:00 37.72866 31.08817 36981 ft 510 kts 128°
2026-05-04 23:00 37.68643 31.15947 36979 ft 510 kts 129°
2026-05-04 23:01 37.64363 31.23157 36960 ft 509 kts 129°
2026-05-04 23:01 37.60129 31.30274 36975 ft 509 kts 129°
2026-05-04 23:02 37.55883 31.37396 36974 ft 509 kts 129°
2026-05-04 23:02 37.51619 31.44530 36967 ft 509 kts 129°
2026-05-04 23:03 37.47375 31.51619 36963 ft 509 kts 129°
2026-05-04 23:03 37.43108 31.58731 36966 ft 508 kts 129°
2026-05-04 23:04 37.38832 31.65840 36972 ft 509 kts 129°
2026-05-04 23:04 37.34577 31.72894 36968 ft 508 kts 130°
2026-05-04 23:05 37.30293 31.79972 36970 ft 509 kts 130°
2026-05-04 23:05 37.26002 31.87052 36971 ft 509 kts 130°
2026-05-04 23:06 37.21706 31.94125 36970 ft 508 kts 130°
2026-05-04 23:06 37.17431 32.01145 36969 ft 508 kts 130°
2026-05-04 23:07 37.13109 32.08229 36964 ft 508 kts 130°
2026-05-04 23:07 37.08832 32.15223 36963 ft 509 kts 130°
2026-05-04 23:08 37.04536 32.22234 36965 ft 509 kts 130°
2026-05-04 23:08 37.00213 32.29274 36961 ft 509 kts 131°
2026-05-04 23:09 36.95911 32.36265 36960 ft 510 kts 131°
2026-05-04 23:09 36.91563 32.43317 36963 ft 510 kts 131°
2026-05-04 23:10 36.87218 32.50356 36956 ft 511 kts 131°
2026-05-04 23:10 36.82860 32.57403 36970 ft 512 kts 131°
2026-05-04 23:11 36.78515 32.64409 36960 ft 513 kts 131°
2026-05-04 23:11 36.74155 32.71425 36962 ft 513 kts 131°
2026-05-04 23:12 36.69771 32.78468 36960 ft 514 kts 131°
2026-05-04 23:12 36.65399 32.85479 36954 ft 514 kts 131°
2026-05-04 23:13 36.61021 32.92486 36947 ft 514 kts 132°
2026-05-04 23:13 36.56600 32.99545 36943 ft 514 kts 132°
2026-05-04 23:14 36.52222 33.06523 36944 ft 514 kts 132°
2026-05-04 23:14 36.47824 33.13516 36926 ft 514 kts 132°
2026-05-04 23:15 36.43404 33.20528 36924 ft 514 kts 132°
2026-05-04 23:15 36.39008 33.27488 36914 ft 514 kts 133°
2026-05-04 23:16 36.34604 33.34445 36907 ft 514 kts 133°
2026-05-04 23:16 36.30893 33.40285 36910 ft 515 kts 133°
2026-05-04 23:17 36.26479 33.47216 36897 ft 515 kts 133°
2026-05-04 23:17 36.22039 33.54178 36895 ft 516 kts 133°
2026-05-04 23:18 36.17553 33.61199 36889 ft 516 kts 133°
2026-05-04 23:18 36.13130 33.68106 36888 ft 516 kts 133°
2026-05-04 23:19 36.08635 33.75097 36890 ft 522 kts 131°
2026-05-04 23:19 36.04129 33.82111 36886 ft 523 kts 131°
2026-05-04 23:20 35.99612 33.89132 36887 ft 522 kts 131°
2026-05-04 23:20 35.95058 33.96190 36883 ft 522 kts 131°
2026-05-04 23:21 35.90040 34.02473 36887 ft 513 kts 147°
2026-05-04 23:21 35.84095 34.07250 36888 ft 510 kts 152°
2026-05-04 23:22 35.77976 34.11742 36887 ft 510 kts 153°
2026-05-04 23:22 35.71865 34.16184 36891 ft 510 kts 153°
2026-05-04 23:23 35.65760 34.20638 36888 ft 510 kts 153°
2026-05-04 23:23 35.59692 34.25057 36886 ft 510 kts 153°
2026-05-04 23:24 35.53578 34.29505 36888 ft 510 kts 153°
2026-05-04 23:24 35.47494 34.33926 36891 ft 509 kts 154°
2026-05-04 23:25 35.41373 34.38367 36892 ft 509 kts 154°
2026-05-04 23:25 35.35297 34.42766 36891 ft 508 kts 154°
2026-05-04 23:26 35.29176 34.47190 36893 ft 508 kts 154°
2026-05-04 23:26 35.23107 34.51569 36884 ft 508 kts 154°
2026-05-04 23:27 35.17035 34.55943 36897 ft 507 kts 154°
2026-05-04 23:27 35.10950 34.60318 36896 ft 507 kts 154°
2026-05-04 23:28 35.04884 34.64672 36898 ft 507 kts 155°
2026-05-04 23:28 34.98774 34.69053 36901 ft 506 kts 155°
2026-05-04 23:29 34.92719 34.73395 36902 ft 506 kts 155°
2026-05-04 23:29 34.86671 34.77724 36905 ft 506 kts 155°
2026-05-04 23:30 34.80612 34.82054 36901 ft 505 kts 155°
2026-05-04 23:30 34.74554 34.86374 36907 ft 505 kts 155°
2026-05-04 23:31 34.68496 34.90686 36911 ft 505 kts 156°
2026-05-04 23:31 34.62426 34.95000 36913 ft 504 kts 156°
2026-05-04 23:32 34.56351 34.99311 36920 ft 504 kts 156°
2026-05-04 23:32 34.50656 35.04419 36921 ft 518 kts 140°
2026-05-04 23:33 34.46490 35.11626 36918 ft 535 kts 118°
2026-05-04 23:33 34.43892 35.20091 36929 ft 540 kts 112°
2026-05-04 23:34 34.41550 35.28790 36926 ft 541 kts 112°
2026-05-04 23:34 34.39209 35.37420 36942 ft 540 kts 113°
2026-05-04 23:35 34.36820 35.46018 36946 ft 540 kts 113°
2026-05-04 23:35 34.34402 35.54607 36958 ft 539 kts 114°
2026-05-04 23:36 34.31966 35.63229 36951 ft 538 kts 114°
2026-05-04 23:36 34.30087 35.71955 36958 ft 545 kts 99°
2026-05-04 23:37 34.29485 35.81095 36955 ft 548 kts 97°
2026-05-04 23:37 34.29096 35.90359 36965 ft 550 kts 96°
2026-05-04 23:38 34.28716 35.99592 36964 ft 551 kts 97°
2026-05-04 23:38 34.28362 36.08865 36963 ft 553 kts 96°
2026-05-04 23:39 34.28055 36.18166 36958 ft 554 kts 96°
2026-05-04 23:39 34.27734 36.27455 36954 ft 555 kts 96°
2026-05-04 23:40 34.27393 36.36769 36947 ft 556 kts 96°
2026-05-04 23:40 34.27039 36.46160 36950 ft 556 kts 97°
2026-05-04 23:41 34.26684 36.55449 36942 ft 557 kts 97°
2026-05-04 23:41 34.26229 36.64808 36943 ft 555 kts 99°
2026-05-04 23:42 34.25487 36.74054 36943 ft 554 kts 100°
2026-05-04 23:42 34.24714 36.83299 36946 ft 553 kts 100°
2026-05-04 23:43 34.23981 36.92536 36948 ft 553 kts 100°
2026-05-04 23:43 34.23262 37.01829 36949 ft 553 kts 100°
2026-05-04 23:44 34.22542 37.11101 36953 ft 553 kts 100°
2026-05-04 23:44 34.21803 37.20307 36945 ft 553 kts 102°
2026-05-04 23:45 34.19740 37.29090 36957 ft 534 kts 123°
2026-05-04 23:45 34.16098 37.36779 36958 ft 528 kts 129°
2026-05-04 23:46 34.12169 37.44292 36958 ft 528 kts 130°
2026-05-04 23:46 34.08227 37.51767 36962 ft 529 kts 130°
2026-05-04 23:47 34.04296 37.59281 36960 ft 529 kts 130°
2026-05-04 23:47 34.00388 37.66779 36976 ft 529 kts 130°
2026-05-04 23:48 33.96473 37.74281 36964 ft 529 kts 130°
2026-05-04 23:48 33.92546 37.81792 36964 ft 529 kts 130°
2026-05-04 23:49 33.88403 37.89050 36968 ft 518 kts 140°
2026-05-04 23:49 33.85881 37.92053 36973 ft 504 kts 150°
2026-05-04 23:49 33.83045 37.94467 36973 ft 490 kts 160°
2026-05-04 23:50 33.77065 37.98346 36975 ft 486 kts 162°
2026-05-04 23:50 33.71069 38.01938 36981 ft 485 kts 163°
2026-05-04 23:51 33.65019 38.05562 36981 ft 485 kts 163°
2026-05-04 23:51 33.58989 38.09214 36983 ft 485 kts 162°
2026-05-04 23:52 33.52974 38.12871 36989 ft 485 kts 162°
2026-05-04 23:52 33.46958 38.16526 36994 ft 485 kts 162°
2026-05-04 23:53 33.40913 38.20199 36993 ft 486 kts 162°
2026-05-04 23:53 33.34885 38.23893 36995 ft 486 kts 162°
2026-05-04 23:54 33.28902 38.27556 36995 ft 486 kts 162°
2026-05-04 23:54 33.22845 38.31252 36997 ft 486 kts 162°
2026-05-04 23:55 33.16851 38.34894 37001 ft 485 kts 163°
2026-05-04 23:56 33.07810 38.40350 37000 ft 485 kts 163°
2026-05-04 23:56 33.01797 38.43979 37003 ft 485 kts 163°
2026-05-04 23:57 32.95764 38.47618 37005 ft 485 kts 163°
2026-05-04 23:57 32.89797 38.51215 37011 ft 484 kts 163°
2026-05-04 23:58 32.83782 38.54824 37009 ft 484 kts 163°
2026-05-04 23:58 32.77756 38.58436 37012 ft 483 kts 163°
2026-05-04 23:59 32.71753 38.62031 37011 ft 483 kts 163°
2026-05-04 23:59 32.65769 38.65610 37015 ft 482 kts 163°
2026-05-05 00:00 32.59780 38.69186 37023 ft 482 kts 163°
2026-05-05 00:00 32.53796 38.72763 37024 ft 482 kts 163°
2026-05-05 00:01 32.47783 38.76342 37024 ft 482 kts 163°
2026-05-05 00:01 32.41798 38.79899 37028 ft 482 kts 164°
2026-05-05 00:02 32.35797 38.83462 37031 ft 482 kts 164°
2026-05-05 00:02 32.29806 38.87016 37032 ft 482 kts 164°
2026-05-05 00:03 32.23836 38.90552 37036 ft 482 kts 164°
2026-05-05 00:03 32.17830 38.94103 37031 ft 482 kts 164°
2026-05-05 00:04 32.11840 38.97640 37035 ft 482 kts 164°
2026-05-05 00:04 32.06824 39.00598 37028 ft 482 kts 164°
2026-05-05 00:05 32.00821 39.04135 37032 ft 482 kts 164°
2026-05-05 00:05 31.93859 39.08250 37033 ft 482 kts 164°
2026-05-05 00:06 31.88852 39.11209 37032 ft 482 kts 164°
2026-05-05 00:06 31.82849 39.14749 37035 ft 482 kts 164°
2026-05-05 00:07 31.76716 39.17573 37032 ft 467 kts 173°
2026-05-05 00:07 31.70537 39.19803 37028 ft 466 kts 174°
2026-05-05 00:08 31.64305 39.21960 37029 ft 466 kts 174°
2026-05-05 00:08 31.58106 39.24108 37033 ft 466 kts 174°
2026-05-05 00:09 31.51866 39.26284 37030 ft 466 kts 174°
2026-05-05 00:09 31.45694 39.28440 37028 ft 466 kts 174°
2026-05-05 00:10 31.39443 39.30621 37035 ft 467 kts 174°
2026-05-05 00:10 31.33255 39.32777 37033 ft 467 kts 174°
2026-05-05 00:11 31.27005 39.34950 37038 ft 467 kts 174°
2026-05-05 00:11 31.20783 39.37111 37050 ft 467 kts 174°
2026-05-05 00:12 31.14532 39.39279 37040 ft 467 kts 174°
2026-05-05 00:12 31.08302 39.41436 37043 ft 468 kts 174°
2026-05-05 00:13 31.02057 39.43596 37046 ft 468 kts 174°
2026-05-05 00:13 30.95845 39.45742 37049 ft 468 kts 174°
2026-05-05 00:14 30.89594 39.47898 37056 ft 468 kts 174°
2026-05-05 00:14 30.83369 39.50042 37054 ft 468 kts 174°
2026-05-05 00:15 30.77089 39.52203 37056 ft 468 kts 174°
2026-05-05 00:15 30.70840 39.54351 37054 ft 468 kts 174°
2026-05-05 00:16 30.64629 39.56481 37059 ft 468 kts 174°
2026-05-05 00:16 30.58379 39.58623 37061 ft 468 kts 174°
2026-05-05 00:17 30.52129 39.60761 37063 ft 468 kts 174°
2026-05-05 00:17 30.45986 39.63540 37065 ft 488 kts 162°
2026-05-05 00:17 30.43086 39.65763 37067 ft 504 kts 152°
2026-05-05 00:18 30.40521 39.68557 37068 ft 520 kts 141°
2026-05-05 00:18 30.38331 39.71999 37065 ft 537 kts 130°
2026-05-05 00:18 30.36577 39.75861 37065 ft 545 kts 124°
2026-05-05 00:19 30.33403 39.83877 37067 ft 550 kts 122°
2026-05-05 00:19 30.30293 39.91960 37073 ft 550 kts 123°
2026-05-05 00:20 30.27125 40.00016 37060 ft 549 kts 123°
2026-05-05 00:20 30.23933 40.08002 37053 ft 549 kts 124°
2026-05-05 00:21 30.20702 40.16038 37048 ft 549 kts 124°
2026-05-05 00:21 30.17492 40.24009 37047 ft 549 kts 124°
2026-05-05 00:22 30.14266 40.32012 37049 ft 549 kts 124°
2026-05-05 00:22 30.11043 40.39992 37046 ft 549 kts 124°
2026-05-05 00:23 30.07816 40.47975 37042 ft 549 kts 124°
2026-05-05 00:23 30.04591 40.55919 37037 ft 549 kts 124°
2026-05-05 00:24 30.01339 40.63915 37034 ft 549 kts 124°
2026-05-05 00:24 29.98099 40.71867 37030 ft 549 kts 124°
2026-05-05 00:25 29.94850 40.79825 37042 ft 549 kts 124°
2026-05-05 00:25 29.91601 40.87767 37031 ft 549 kts 124°
2026-05-05 00:26 29.88341 40.95720 37019 ft 549 kts 124°
2026-05-05 00:26 29.85072 41.03676 37020 ft 549 kts 124°
2026-05-05 00:27 29.81788 41.11654 37017 ft 549 kts 124°
2026-05-05 00:27 29.78512 41.19594 37016 ft 549 kts 124°
2026-05-05 00:28 29.75228 41.27538 37011 ft 549 kts 124°
2026-05-05 00:28 29.72325 41.35731 37009 ft 557 kts 118°
2026-05-05 00:29 29.69704 41.44065 37006 ft 558 kts 118°
2026-05-05 00:29 29.67094 41.52504 36996 ft 558 kts 118°
2026-05-05 00:30 29.64497 41.60859 36992 ft 557 kts 118°
2026-05-05 00:30 29.61861 41.69278 36992 ft 557 kts 118°
2026-05-05 00:31 29.59243 41.77604 36986 ft 557 kts 118°
2026-05-05 00:31 29.56597 41.85998 36980 ft 557 kts 118°
2026-05-05 00:32 29.53955 41.94364 36975 ft 557 kts 118°
2026-05-05 00:32 29.51321 42.02680 36970 ft 557 kts 118°
2026-05-05 00:33 29.48661 42.11058 36961 ft 557 kts 118°
2026-05-05 00:33 29.46005 42.19401 36956 ft 558 kts 118°
2026-05-05 00:34 29.43326 42.27798 36956 ft 560 kts 118°
2026-05-05 00:34 29.40651 42.36162 36951 ft 561 kts 118°
2026-05-05 00:35 29.37952 42.44579 36950 ft 562 kts 118°
2026-05-05 00:35 29.35257 42.52965 36929 ft 562 kts 118°
2026-05-05 00:36 29.32556 42.61350 36933 ft 563 kts 118°
2026-05-05 00:36 29.29834 42.69778 36925 ft 563 kts 118°
2026-05-05 00:37 29.27114 42.78180 36919 ft 562 kts 118°
2026-05-05 00:37 29.24391 42.86570 36919 ft 562 kts 118°
2026-05-05 00:38 29.21672 42.94926 36910 ft 561 kts 118°
2026-05-05 00:38 29.18942 43.03296 36907 ft 560 kts 118°
2026-05-05 00:39 29.16055 43.11525 36903 ft 551 kts 127°
2026-05-05 00:39 29.12355 43.19164 36898 ft 546 kts 129°
2026-05-05 00:40 29.08526 43.26638 36887 ft 545 kts 130°
2026-05-05 00:40 29.04649 43.34140 36882 ft 545 kts 130°
2026-05-05 00:41 29.00813 43.41585 36873 ft 546 kts 129°
2026-05-05 00:41 28.96958 43.49078 36868 ft 546 kts 129°
2026-05-05 00:42 28.93131 43.56511 36855 ft 546 kts 129°
2026-05-05 00:42 28.89284 43.63967 36861 ft 546 kts 129°
2026-05-05 00:43 28.85420 43.71443 36857 ft 547 kts 129°
2026-05-05 00:43 28.81529 43.78955 36852 ft 546 kts 129°
2026-05-05 00:44 28.77676 43.86382 36855 ft 546 kts 129°
2026-05-05 00:44 28.73811 43.93819 36854 ft 546 kts 129°
2026-05-05 00:45 28.69933 44.01266 36856 ft 546 kts 129°
2026-05-05 00:45 28.66074 44.08663 36858 ft 546 kts 129°
2026-05-05 00:46 28.62202 44.16073 36856 ft 546 kts 129°
2026-05-05 00:46 28.58286 44.23554 36858 ft 545 kts 129°
2026-05-05 00:47 28.54418 44.30929 36855 ft 545 kts 129°
2026-05-05 00:47 28.50541 44.38309 36857 ft 545 kts 129°
2026-05-05 00:48 28.46663 44.45679 36853 ft 544 kts 130°
2026-05-05 00:48 28.42775 44.53052 36854 ft 544 kts 130°
2026-05-05 00:49 28.38868 44.60449 36856 ft 544 kts 130°
2026-05-05 00:49 28.34976 44.67805 36852 ft 545 kts 130°
2026-05-05 00:50 28.31051 44.75211 36856 ft 545 kts 130°
2026-05-05 00:50 28.27147 44.82563 36855 ft 545 kts 130°
2026-05-05 00:51 28.23253 44.89885 36854 ft 545 kts 130°
2026-05-05 00:51 28.19329 44.97251 36862 ft 545 kts 130°
2026-05-05 00:52 28.16054 45.03389 36855 ft 544 kts 130°
2026-05-05 00:52 28.11502 45.11919 36851 ft 544 kts 130°
2026-05-05 00:53 28.08231 45.18035 36848 ft 544 kts 130°
2026-05-05 00:53 28.04300 45.25370 36851 ft 544 kts 130°
2026-05-05 00:54 28.00390 45.32657 36849 ft 544 kts 130°
2026-05-05 00:54 27.96432 45.40020 36850 ft 544 kts 130°
2026-05-05 00:55 27.92513 45.47300 36842 ft 544 kts 130°
2026-05-05 00:55 27.88744 45.54749 36850 ft 554 kts 122°
2026-05-05 00:56 27.86418 45.63179 36853 ft 566 kts 110°
2026-05-05 00:56 27.84629 45.71820 36850 ft 568 kts 109°
2026-05-05 00:57 27.82895 45.80569 36839 ft 567 kts 109°
2026-05-05 00:57 27.81137 45.89239 36853 ft 567 kts 109°
2026-05-05 00:58 27.79340 45.97932 36855 ft 566 kts 110°
2026-05-05 00:58 27.77540 46.06567 36856 ft 566 kts 110°
2026-05-05 00:59 27.75736 46.15206 36856 ft 566 kts 110°
2026-05-05 00:59 27.73931 46.23825 36857 ft 566 kts 110°
2026-05-05 01:00 27.72123 46.32496 36856 ft 566 kts 109°
2026-05-05 01:00 27.70315 46.41144 36851 ft 566 kts 109°
2026-05-05 01:01 27.68511 46.49749 36849 ft 565 kts 109°
2026-05-05 01:01 27.66695 46.58375 36847 ft 565 kts 109°
2026-05-05 01:02 27.64880 46.66965 36841 ft 564 kts 109°
2026-05-05 01:02 27.63059 46.75562 36844 ft 564 kts 110°
2026-05-05 01:03 27.61217 46.84229 36841 ft 564 kts 110°
2026-05-05 01:03 27.59392 46.92789 36838 ft 564 kts 110°
2026-05-05 01:04 27.57561 47.01349 36836 ft 563 kts 110°
2026-05-05 01:04 27.54794 47.14232 36834 ft 563 kts 110°
2026-05-05 01:05 27.52952 47.22774 36833 ft 562 kts 110°
2026-05-05 01:05 27.51103 47.31321 36827 ft 562 kts 110°
2026-05-05 01:06 27.49243 47.39892 36826 ft 562 kts 110°
2026-05-05 01:06 27.47384 47.48434 36823 ft 562 kts 110°
2026-05-05 01:07 27.45519 47.56976 36821 ft 562 kts 110°
2026-05-05 01:07 27.43604 47.65517 36821 ft 560 kts 112°
2026-05-05 01:08 27.41246 47.73863 36809 ft 557 kts 115°
2026-05-05 01:08 27.38774 47.82100 36813 ft 557 kts 115°
2026-05-05 01:09 27.36366 47.90336 36808 ft 558 kts 114°
2026-05-05 01:09 27.33981 47.98663 36803 ft 558 kts 114°
2026-05-05 01:10 27.31622 48.06930 36801 ft 557 kts 114°
2026-05-05 01:10 27.29306 48.15277 36796 ft 558 kts 112°
2026-05-05 01:11 27.27116 48.23671 36797 ft 558 kts 112°
2026-05-05 01:11 27.24925 48.32057 36791 ft 558 kts 112°
2026-05-05 01:12 27.22722 48.40378 36785 ft 558 kts 112°
2026-05-05 01:12 27.20492 48.48729 36784 ft 558 kts 112°
2026-05-05 01:13 27.18257 48.57072 36780 ft 559 kts 112°
2026-05-05 01:13 27.16007 48.65456 36774 ft 559 kts 112°
2026-05-05 01:14 27.13758 48.73817 36769 ft 560 kts 112°
2026-05-05 01:14 27.11516 48.82128 36765 ft 560 kts 112°
2026-05-05 01:15 27.08498 48.90081 36762 ft 544 kts 130°
2026-05-05 01:15 27.04194 48.96994 36758 ft 539 kts 134°
2026-05-05 01:16 26.99694 49.03698 36755 ft 539 kts 134°
2026-05-05 01:16 26.95147 49.10421 36753 ft 540 kts 134°
2026-05-05 01:17 26.90638 49.17135 36748 ft 540 kts 134°
2026-05-05 01:17 26.86116 49.23888 36743 ft 541 kts 134°
2026-05-05 01:18 26.81597 49.30632 36754 ft 541 kts 134°
2026-05-05 01:18 26.77239 49.37486 36748 ft 549 kts 126°
2026-05-05 01:19 26.74211 49.45487 36740 ft 559 kts 114°
2026-05-05 01:19 26.71733 49.53723 36735 ft 561 kts 112°
2026-05-05 01:20 26.69316 49.62007 36738 ft 562 kts 112°
2026-05-05 01:20 26.66860 49.70322 36738 ft 562 kts 113°
2026-05-05 01:21 26.64387 49.78574 36743 ft 562 kts 113°
2026-05-05 01:21 26.61880 49.86892 36740 ft 562 kts 113°
2026-05-05 01:22 26.59387 49.95159 36737 ft 562 kts 113°
2026-05-05 01:22 26.56893 50.03375 36737 ft 561 kts 114°
2026-05-05 01:23 26.54372 50.11655 36735 ft 560 kts 113°
2026-05-05 01:23 26.51867 50.19883 36731 ft 559 kts 113°
2026-05-05 01:24 26.49381 50.28041 36735 ft 558 kts 113°
2026-05-05 01:24 26.46873 50.36257 36739 ft 557 kts 113°
2026-05-05 01:25 26.44443 50.44479 36747 ft 556 kts 111°
2026-05-05 01:25 26.42177 50.52705 36743 ft 556 kts 111°
2026-05-05 01:26 26.39908 50.60938 36744 ft 555 kts 111°
2026-05-05 01:26 26.37593 50.69186 36741 ft 554 kts 112°
2026-05-05 01:27 26.35272 50.77333 36736 ft 554 kts 112°
2026-05-05 01:27 26.32928 50.85524 36746 ft 553 kts 112°
2026-05-05 01:28 26.30520 50.93596 36747 ft 550 kts 117°
2026-05-05 01:28 26.27081 51.01164 36738 ft 544 kts 124°
2026-05-05 01:29 26.23399 51.08520 36739 ft 543 kts 124°
2026-05-05 01:29 26.19690 51.15820 36737 ft 543 kts 124°
2026-05-05 01:30 26.15983 51.23142 36738 ft 543 kts 124°
2026-05-05 01:30 26.12293 51.30449 36735 ft 543 kts 124°
2026-05-05 01:31 26.08595 51.37772 36738 ft 542 kts 124°
2026-05-05 01:31 26.04905 51.45077 36740 ft 542 kts 124°
2026-05-05 01:32 26.01202 51.52378 36739 ft 542 kts 124°
2026-05-05 01:32 25.97496 51.59667 36739 ft 542 kts 124°
2026-05-05 01:33 25.93764 51.67001 36737 ft 542 kts 124°
2026-05-05 01:33 25.90061 51.74273 36733 ft 542 kts 124°
2026-05-05 01:34 25.86437 51.81616 36739 ft 543 kts 123°
2026-05-05 01:34 25.82865 51.89003 36737 ft 543 kts 122°
2026-05-05 01:35 25.79628 51.96566 36739 ft 546 kts 118°
2026-05-05 01:35 25.76522 52.04255 36744 ft 546 kts 118°
2026-05-05 01:36 25.73369 52.11899 36743 ft 545 kts 119°
2026-05-05 01:36 25.70160 52.19530 36743 ft 545 kts 119°
2026-05-05 01:37 25.66934 52.27146 36746 ft 545 kts 119°
2026-05-05 01:37 25.63714 52.34735 36746 ft 545 kts 119°
2026-05-05 01:38 25.60443 52.42332 36745 ft 543 kts 121°
2026-05-05 01:38 25.56793 52.49579 36742 ft 541 kts 124°
2026-05-05 01:39 25.53005 52.56786 36742 ft 541 kts 124°
2026-05-05 01:39 25.49267 52.64037 36743 ft 541 kts 124°
2026-05-05 01:40 25.46199 52.70071 36744 ft 541 kts 123°
2026-05-05 01:40 25.41824 52.78471 36746 ft 539 kts 126°
2026-05-05 01:41 25.38558 52.84341 36747 ft 538 kts 126°
2026-05-05 01:41 25.33933 52.92506 36749 ft 538 kts 126°
2026-05-05 01:42 25.30884 52.98534 36750 ft 542 kts 119°
2026-05-05 01:42 25.27698 53.06103 36750 ft 543 kts 118°
2026-05-05 01:43 25.24609 53.13694 36755 ft 542 kts 117°
2026-05-05 01:43 25.21494 53.21343 36750 ft 542 kts 118°
2026-05-05 01:44 25.18352 53.28897 36738 ft 539 kts 122°
2026-05-05 01:44 25.14052 53.35510 36754 ft 531 kts 133°
2026-05-05 01:45 25.09357 53.41819 36751 ft 530 kts 134°
2026-05-05 01:45 25.04619 53.48055 36755 ft 530 kts 134°
2026-05-05 01:46 24.99918 53.54274 36757 ft 530 kts 134°
2026-05-05 01:46 24.95612 53.60908 36754 ft 535 kts 125°
2026-05-05 01:47 24.91779 53.67951 36754 ft 535 kts 124°
2026-05-05 01:47 24.87976 53.74996 36754 ft 535 kts 124°
2026-05-05 01:48 24.84194 53.82010 36753 ft 535 kts 124°
2026-05-05 01:48 24.80390 53.89056 36751 ft 535 kts 124°
2026-05-05 01:49 24.76593 53.96082 36751 ft 535 kts 124°
2026-05-05 01:49 24.72881 54.03171 36756 ft 537 kts 120°
2026-05-05 01:50 24.69619 54.10553 36753 ft 537 kts 119°
2026-05-05 01:50 24.66310 54.17929 36752 ft 537 kts 120°
2026-05-05 01:51 24.62964 54.25297 36749 ft 537 kts 120°
2026-05-05 01:51 24.59646 54.32611 36742 ft 536 kts 120°
2026-05-05 01:52 24.57559 54.35956 36747 ft 527 kts 137°
2026-05-05 01:52 24.54981 54.38688 36743 ft 521 kts 143°
2026-05-05 01:52 24.49629 54.44088 36749 ft 523 kts 141°
2026-05-05 01:53 24.44422 54.49626 36759 ft 523 kts 140°
2026-05-05 01:53 24.39500 54.55563 36759 ft 529 kts 131°
2026-05-05 01:54 24.35030 54.61922 36742 ft 528 kts 131°
2026-05-05 01:54 24.30485 54.68317 36754 ft 528 kts 131°
2026-05-05 01:55 24.25974 54.74634 36753 ft 528 kts 131°
2026-05-05 01:55 24.21455 54.80949 36758 ft 527 kts 131°
2026-05-05 01:56 24.16949 54.87259 36753 ft 527 kts 131°
2026-05-05 01:56 24.12362 54.93560 36773 ft 525 kts 136°
2026-05-05 01:57 24.10216 54.96775 36780 ft 531 kts 121°
2026-05-05 01:57 24.08824 55.00525 36776 ft 535 kts 106°
2026-05-05 01:57 24.08295 55.04570 36768 ft 538 kts 91°
2026-05-05 01:57 24.08671 55.08633 36778 ft 538 kts 76°
2026-05-05 01:58 24.09919 55.12486 36779 ft 536 kts 61°
2026-05-05 01:58 24.11930 55.15830 36783 ft 531 kts 46°
2026-05-05 01:58 24.14627 55.18553 36782 ft 524 kts 31°
2026-05-05 01:58 24.17822 55.20446 36776 ft 516 kts 16°
2026-05-05 01:59 24.21270 55.21383 36788 ft 505 kts
2026-05-05 01:59 24.24710 55.21334 36790 ft 494 kts 346°
2026-05-05 01:59 24.27981 55.20323 36788 ft 483 kts 330°
2026-05-05 01:59 24.30833 55.18428 36783 ft 473 kts 315°
2026-05-05 02:00 24.33041 55.15827 36777 ft 463 kts 300°
2026-05-05 02:00 24.34466 55.12747 36764 ft 457 kts 285°
2026-05-05 02:00 24.35046 55.09328 36764 ft 453 kts 270°
2026-05-05 02:00 24.35045 55.05876 36768 ft 453 kts 270°
2026-05-05 02:01 24.35145 54.98964 36759 ft 455 kts 270°
2026-05-05 02:01 24.35000 54.92040 36763 ft 455 kts 266°
2026-05-05 02:02 24.34953 54.85151 36759 ft 456 kts 278°
2026-05-05 02:02 24.37128 54.78574 36744 ft 461 kts 296°
2026-05-05 02:03 24.40574 54.72653 36748 ft 465 kts 301°
2026-05-05 02:03 24.44436 54.66901 36760 ft 466 kts 303°
2026-05-05 02:04 24.48805 54.61681 36752 ft 477 kts 322°
2026-05-05 02:04 24.51799 54.60039 36761 ft 487 kts 336°
2026-05-05 02:04 24.55086 54.59006 36742 ft 490 kts 339°
2026-05-05 02:05 24.61613 54.56862 36749 ft 489 kts 338°
2026-05-05 02:05 24.64631 54.55324 36770 ft 478 kts 321°
2026-05-05 02:05 24.67129 54.52962 36756 ft 465 kts 306°
2026-05-05 02:06 24.71229 54.47487 36755 ft 466 kts 307°
2026-05-05 02:06 24.75714 54.42441 36749 ft 455 kts 316°
2026-05-05 02:07 24.81173 54.39174 36759 ft 452 kts 337°
2026-05-05 02:07 24.84307 54.38463 36762 ft 461 kts 348°
2026-05-05 02:07 24.87526 54.38397 36765 ft 470 kts 359°
2026-05-05 02:08 24.93954 54.40215 36767 ft 487 kts 20°
2026-05-05 02:08 24.96886 54.42094 36767 ft 495 kts 32°
2026-05-05 02:08 24.99498 54.44620 36767 ft 502 kts 44°
2026-05-05 02:09 25.01620 54.47685 36769 ft 507 kts 57°
2026-05-05 02:09 25.03154 54.51173 36768 ft 510 kts 69°
2026-05-05 02:09 25.04050 54.54981 36765 ft 511 kts 82°
2026-05-05 02:09 25.04253 54.58848 36765 ft 510 kts 94°
2026-05-05 02:10 25.03772 54.62712 36765 ft 507 kts 106°
2026-05-05 02:10 25.02631 54.66370 36769 ft 502 kts 118°
2026-05-05 02:10 25.00907 54.69662 36767 ft 496 kts 130°
2026-05-05 02:10 24.98676 54.72552 36768 ft 490 kts 139°
2026-05-05 02:11 24.93916 54.77886 36765 ft 491 kts 139°
2026-05-05 02:11 24.89129 54.83223 36766 ft 488 kts 144°
2026-05-05 02:12 24.86412 54.85444 36768 ft 479 kts 155°
2026-05-05 02:12 24.80338 54.87827 36768 ft 458 kts 178°
2026-05-05 02:13 24.74103 54.87670 36766 ft 443 kts 197°
2026-05-05 02:13 24.68392 54.85390 36757 ft 431 kts 215°
2026-05-05 02:14 24.63826 54.81303 36750 ft 421 kts 232°
2026-05-05 02:14 24.60751 54.75937 36754 ft 416 kts 249°
2026-05-05 02:15 24.59370 54.69769 36747 ft 415 kts 265°
2026-05-05 02:15 24.59826 54.63509 36762 ft 418 kts 282°
2026-05-05 02:16 24.62115 54.57596 36749 ft 425 kts 299°
2026-05-05 02:16 24.65998 54.52594 36752 ft 432 kts 310°
2026-05-05 02:17 24.70257 54.47937 36757 ft 432 kts 310°
2026-05-05 02:17 24.74544 54.43327 36756 ft 435 kts 314°
2026-05-05 02:18 24.79740 54.39786 36759 ft 448 kts 333°
2026-05-05 02:18 24.85907 54.38374 36763 ft 465 kts 353°
2026-05-05 02:18 24.89156 54.38609 36764 ft 474 kts
2026-05-05 02:19 24.92378 54.39520 36766 ft 482 kts 15°
2026-05-05 02:19 24.95455 54.41109 36766 ft 491 kts 26°
2026-05-05 02:19 24.98229 54.43343 36764 ft 498 kts 38°
2026-05-05 02:19 25.00571 54.46143 36766 ft 503 kts 51°
2026-05-05 02:20 25.02409 54.49474 36769 ft 508 kts 63°
2026-05-05 02:20 25.03607 54.53121 36771 ft 510 kts 76°
2026-05-05 02:20 25.04136 54.56987 36770 ft 510 kts 88°
2026-05-05 02:20 25.03963 54.60895 36767 ft 508 kts 101°
2026-05-05 02:21 25.03122 54.64625 36767 ft 504 kts 113°
2026-05-05 02:21 25.01642 54.68121 36770 ft 498 kts 125°
2026-05-05 02:21 24.99630 54.71170 36773 ft 491 kts 137°
2026-05-05 02:22 24.94905 54.76514 36771 ft 489 kts 139°
2026-05-05 02:22 24.90155 54.81894 36767 ft 489 kts 140°
2026-05-05 02:23 24.84742 54.86172 36768 ft 472 kts 162°
2026-05-05 02:23 24.81639 54.87337 36770 ft 461 kts 173°
2026-05-05 02:23 24.78526 54.87818 36767 ft 453 kts 184°
2026-05-05 02:24 24.72386 54.87029 36764 ft 438 kts 202°
2026-05-05 02:24 24.66988 54.84202 36757 ft 426 kts 220°
2026-05-05 02:25 24.62834 54.79706 36758 ft 418 kts 237°
2026-05-05 02:25 24.60228 54.74067 36749 ft 414 kts 253°
2026-05-05 02:26 24.59393 54.68903 36744 ft 413 kts 267°
2026-05-05 02:26 24.60074 54.62645 36750 ft 417 kts 284°
2026-05-05 02:27 24.62557 54.56885 36752 ft 424 kts 301°
2026-05-05 02:27 24.66550 54.51991 36754 ft 430 kts 310°
2026-05-05 02:28 24.70763 54.47383 36757 ft 430 kts 310°
2026-05-05 02:28 24.75091 54.42821 36755 ft 434 kts 316°
2026-05-05 02:29 24.80406 54.39523 36764 ft 448 kts 335°
2026-05-05 02:29 24.86633 54.38422 36764 ft 465 kts 356°
2026-05-05 02:29 24.89888 54.38832 36768 ft 474 kts
2026-05-05 02:30 24.93048 54.39912 36766 ft 482 kts 18°
2026-05-05 02:30 24.96035 54.41667 36770 ft 490 kts 30°
2026-05-05 02:30 24.98715 54.44072 36768 ft 497 kts 42°
2026-05-05 02:30 25.00894 54.46988 36768 ft 503 kts 54°
2026-05-05 02:31 25.02550 54.50402 36768 ft 506 kts 67°
2026-05-05 02:31 25.03563 54.54107 36770 ft 508 kts 79°
2026-05-05 02:31 25.03897 54.58008 36772 ft 507 kts 92°
2026-05-05 02:31 25.03520 54.61883 36771 ft 505 kts 104°
2026-05-05 02:32 25.02498 54.65502 36772 ft 500 kts 117°
2026-05-05 02:32 25.00845 54.68876 36773 ft 494 kts 129°
2026-05-05 02:32 24.98700 54.71779 36779 ft 487 kts 139°
2026-05-05 02:33 24.93952 54.77107 36771 ft 488 kts 139°
2026-05-05 02:33 24.89202 54.82427 36774 ft 486 kts 142°
2026-05-05 02:33 24.86538 54.84705 36779 ft 477 kts 154°
2026-05-05 02:34 24.83591 54.86329 36780 ft 466 kts 166°
2026-05-05 02:34 24.80541 54.87239 36778 ft 457 kts 177°
2026-05-05 02:34 24.77380 54.87514 36773 ft 448 kts 187°
2026-05-05 02:35 24.71378 54.86357 36781 ft 434 kts 205°
2026-05-05 02:35 24.66193 54.83234 36759 ft 422 kts 223°